Location: Saint-Palais-sur-Mer
(45.6429°N, 1.0859°W)
Time: 02:36:20
(UTC+02:00)

AO-85 - Visible Passes

Search period start: 19 April 2024 00:00
Search period end: 29 April 2024 00:00
Orbit: 516 x 753 km, 64.8° (Epoch: 04 January)

Date Brightness Start Highest point End Pass type
(mag) Time Alt. Az. Time Alt. Az. Time Alt. Az.
19 Apr ? 02:02:36 17° NE 02:02:36 17° NE 02:03:44 10° NE visible
19 Apr ? 03:39:48 23° NW 03:39:48 23° NW 03:43:24 10° NNE visible
20 Apr ? 02:20:31 26° NNE 02:20:31 26° NNE 02:22:37 10° NNE visible
20 Apr ? 03:57:42 14° NW 03:59:00 15° NNW 04:01:44 10° N visible
21 Apr ? 02:38:21 29° N 02:38:21 29° N 02:41:18 10° NNE visible
21 Apr ? 04:17:23 10° NW 04:18:28 11° NNW 04:19:34 10° N visible
22 Apr ? 01:18:57 18° NE 01:18:57 18° NE 01:20:12 10° NE visible
22 Apr ? 02:56:08 22° NW 02:56:11 22° NW 02:59:47 10° NNE visible
23 Apr ? 01:36:39 29° NNE 01:36:39 29° NNE 01:39:02 10° NNE visible
23 Apr ? 03:13:50 12° NW 03:15:30 14° NNW 03:18:05 10° N visible
24 Apr ? 00:17:06 12° NE 00:17:06 12° NE 00:17:33 10° NE visible
24 Apr ? 01:54:16 31° NNW 01:54:16 31° NNW 01:57:40 10° NNE visible
24 Apr ? 03:34:13 10° NNW 03:34:58 10° NNW 03:35:42 10° N visible
25 Apr ? 00:34:34 26° NE 00:34:34 26° NE 00:36:37 10° NE visible
25 Apr ? 02:11:44 19° NW 02:12:37 21° NW 02:16:08 10° NNE visible
26 Apr ? 00:51:53 45° N 00:51:53 45° N 00:55:23 10° NNE visible
26 Apr ? 02:29:34 10° WNW 02:31:56 14° NNW 02:34:22 10° N visible
26 Apr ? 05:54:46 10° N 05:56:32 12° NNE 05:58:19 10° NE visible
26 Apr ? 23:31:48 24° ENE 23:31:48 24° ENE 23:33:57 10° NE visible
27 Apr ? 01:08:55 28° WNW 01:09:50 31° NW 01:13:59 10° NNE visible
27 Apr ? 06:12:47 10° N 06:15:56 17° NNE 06:19:08 10° ENE visible
27 Apr ? 23:48:25 80° ESE 23:48:25 80° ESE 23:52:57 10° NE visible
28 Apr ? 01:25:44 10° W 01:28:59 20° NW 01:32:24 10° NNE visible
28 Apr ? 22:27:10 20° ESE 22:27:35 20° ESE 22:30:51 10° ENE visible
